Terminal Aerodrome Forecast
Issued by NWS Louisville, KY

Home | Current Version | Previous Version | Text Only | Print | Product List | Glossary On
Versions: 1 2 3 4 5 6 7 8 9 10 11 12 13 14 15 16 17 18 19
000
FTUS43 KLMK 221700
TAFSDF
TAF
KSDF 221731Z 2218/2324 22006KT P6SM SCT040
     FM231300 27006KT P6SM SCT050 BKN150
     FM231800 29007KT P6SM VCSH BKN050=

USA.gov is the U.S. government's official web portal to all federal, state and local government web resources and services.